Regional Weather Roundup
Issued by NWS

Home | Current Version | Previous Version | Text Only | Print | Product List | Glossary On
Versions: 1 2 3 4 5 6 7 8 9 10 11 12 13 14 15 16 17 18 19 20 21 22 23 24 25 26 27 28 29 30 31 32 33 34 35 36 37 38 39 40 41 42 43 44 45 46 47 48 49 50
000
ASUS45 KABQ 260210
RWRNM
WEATHER ROUNDUP FOR NEW MEXICO
NATIONAL WEATHER SERVICE ALBUQUERQUE NM
700 PM MST THU DEC 25 2014

NOTE: "FAIR" MEANS FEW OR NO CLOUDS BELOW 12,000 FEET AGL WITH NO
       SIGNIFICANT WEATHER OR OBSTRUCTIONS TO VISION.

      THIS PRODUCT IS RELEASED AS TWO VERSIONS.  ONE VERSION NEAR
      THE TOP OF THE HOUR CONTAINING PRELIMINARY DATA FROM ALBUQUERQUE
      AND OTHER STATIONS.  A FINAL VERSION WITH ADDITIONAL DATA IS
      ISSUED ABOUT 10 MINUTES AFTER THE HOUR.

NMZ501-503-504-510>518-260300-
NORTHWEST PLATEAU/NORTHCENTRAL MOUNTAINS

CITY           SKY/WX    TMP DP  RH WIND       PRES   REMARKS
FARMINGTON     PTCLDY    32  24  72 W12       29.64R WCI  23
LOS ALAMOS     CLOUDY    35  24  64 S6        29.66R WCI  30
SANTA FE       CLOUDY    35  21  56 N6        29.64R WCI  30
ANGEL FIRE     LGT SNOW  28  26  92 SW7       29.66S VSB 1   WCI  21

$$
NMZ402-403-502-505>509-260300-
WESTCENTRAL MOUNTAINS/SOUTHWEST MOUNTAINS

CITY           SKY/WX    TMP DP  RH WIND       PRES   REMARKS
GALLUP         LGT SNOW  28  26  92 W7        29.69R FOG     WCI  21
GRANTS         LGT SNOW  29  28  93 NW12      29.71R WCI  20
SILVER CITY    PTCLDY    46  18  31 W15G23    29.72R

$$
NMZ407-409-411-412-260300-
SOUTHERN DESERTS

CITY           SKY/WX    TMP DP  RH WIND       PRES   REMARKS
LORDSBURG      CLOUDY    52  23  32 SW10G16   29.71R
DEMING         CLEAR     53  19  26 SW13      29.71R
LAS CRUCES     CLEAR     53  19  26 SW15      29.72R
HOLLOMAN AFB   PTCLDY    50  17  27 W13       29.68R
ALAMOGORDO     PTCLDY    55  16  21 S16       29.70R
T OR C         PTCLDY    54  18  24 SW15G28   29.64R

$$
NMZ519>523-260300-
CENTRAL VALLEYS/CENTRAL HIGHLANDS

CITY           SKY/WX    TMP DP  RH WIND       PRES   REMARKS
ALBUQUERQUE    PTCLDY    42  24  49 NW17G24   29.66R
DOUBLE EAGLE   CLEAR     37  25  60 W14       29.65R WCI  29
MORIARTY ARPT  MOCLDY    38  11  33 S9        29.65R WCI  32
CLINES CORNERS CLOUDY    38   9  30 S14       29.64R WCI  30
BELEN          FAIR      45  17  32 SW10      29.63R
SOCORRO        FAIR      45  12  26 CALM      29.62R

$$
NMZ524>526-539-540-260300-
SOUTHCENTRAL MOUNTAINS

CITY           SKY/WX    TMP DP  RH WIND       PRES   REMARKS
RUIDOSO        CLEAR     45  10  24 SW28G37   29.71R

$$
NMZ527>531-260300-
NORTHEAST HIGHLANDS/NORTHEAST PLAINS

CITY           SKY/WX    TMP DP  RH WIND       PRES   REMARKS
LAS VEGAS      MOCLDY    30  17  58 SE10      29.64R WCI  21
RATON          MOCLDY    33  22  63 S6        29.62R WCI  28
CLAYTON        CLEAR     39  16  39 SW8       29.63R WCI  33

$$
NMZ532>537-260300-
EASTCENTRAL PLAINS

CITY           SKY/WX    TMP DP  RH WIND       PRES   REMARKS
TUCUMCARI      CLEAR     41  18  39 S8        29.63R
CANNON AFB     CLEAR     40  21  47 S13       29.68R WCI  32
CLOVIS AIRPORT CLEAR     36  18  48 SE6       29.68S WCI  31

$$
NMZ028-029-538-260300-
SOUTHEAST PLAINS

CITY           SKY/WX    TMP DP  RH WIND       PRES   REMARKS
ROSWELL        CLEAR     50  15  24 S10       29.67R
ARTESIA        PTCLDY    46  21  36 S8        29.69R
CARLSBAD       MOCLDY    56  16  20 S15       29.68R
HOBBS          PTCLDY    43  25  49 S7        29.74R


$$



USA.gov is the U.S. government's official web portal to all federal, state and local government web resources and services.